This is the latest recevied weather packets stored in our database for station/object K7CTM. If no packets are shown the sender has not sent any weather packets the latest 1 day(s).
| Time | Temp. | Humidity | Pressure | Rain* | Wind** | Luminosity | Snow |
|---|---|---|---|---|---|---|---|
| 1778063305 | -3.33° C | 84% | 1028.5 hPa | 0 mm | 1.79 m/s, 247° | 0 W/m² | - |
| 1778063003 | -3.33° C | 84% | 1028.5 hPa | 0 mm | 1.79 m/s, 250° | 0 W/m² | - |
| 1778062700 | -2.78° C | 83% | 1028.2 hPa | 0 mm | 1.79 m/s, 251° | 0 W/m² | - |
| 1778062395 | -3.33° C | 83% | 1028.2 hPa | 0 mm | 1.34 m/s, 255° | 0 W/m² | - |
| 1778062094 | -2.78° C | 82% | 1028.3 hPa | 0 mm | 1.34 m/s, 254° | 0 W/m² | - |
| 1778061792 | -2.78° C | 82% | 1028.3 hPa | 0 mm | 1.34 m/s, 234° | 0 W/m² | - |
| 1778061490 | -2.78° C | 81% | 1028.2 hPa | 0 mm | 1.34 m/s, 237° | 0 W/m² | - |
| 1778061187 | -2.78° C | 81% | 1028.3 hPa | 0 mm | 1.79 m/s, 257° | 0 W/m² | - |
| 1778060884 | -2.78° C | 82% | 1028.2 hPa | 0 mm | 1.34 m/s, 265° | 0 W/m² | - |
| 1778060582 | -2.78° C | 81% | 1028.3 hPa | 0 mm | 0.89 m/s, 253° | 0 W/m² | - |
| 1778060280 | -2.78° C | 81% | 1028.2 hPa | 0 mm | 0.89 m/s, 250° | 0 W/m² | - |
| 1778059977 | -2.78° C | 80% | 1028.3 hPa | 0 mm | 1.34 m/s, 251° | 0 W/m² | - |
| 1778059675 | -2.22° C | 78% | 1028.2 hPa | 0 mm | 1.34 m/s, 253° | 0 W/m² | - |
| 1778059372 | -2.78° C | 78% | 1028.2 hPa | 0 mm | 1.34 m/s, 267° | 0 W/m² | - |
| 1778059069 | -2.78° C | 78% | 1028.6 hPa | 0 mm | 1.34 m/s, 253° | 0 W/m² | - |
| 1778058767 | -2.78° C | 78% | 1028.5 hPa | 0 mm | 1.34 m/s, 246° | 0 W/m² | - |
| 1778058465 | -2.22° C | 77% | 1028.5 hPa | 0 mm | 1.79 m/s, 255° | 0 W/m² | - |
| 1778058161 | -1.11° C | 76% | 1028.3 hPa | 0 mm | 1.79 m/s, 273° | 0 W/m² | - |
| 1778057858 | -1.67° C | 77% | 1028.7 hPa | 0 mm | 2.24 m/s, 288° | 0 W/m² | - |
| 1778057554 | -2.22° C | 78% | 1028.7 hPa | 0 mm | 2.24 m/s, 267° | 0 W/m² | - |
| 1778057251 | -2.22° C | 76% | 1028.7 hPa | 0 mm | 2.24 m/s, 260° | 0 W/m² | - |
| 1778056947 | -1.67° C | 75% | 1028.5 hPa | 0 mm | 1.79 m/s, 262° | 0 W/m² | - |
| 1778056644 | -1.67° C | 75% | 1028.6 hPa | 0 mm | 2.24 m/s, 268° | 0 W/m² | - |
| 1778056342 | -1.67° C | 74% | 1028.5 hPa | 0 mm | 2.24 m/s, 263° | 0 W/m² | - |
| 1778056039 | -1.67° C | 74% | 1028.5 hPa | 0 mm | 2.68 m/s, 269° | 0 W/m² | - |
* Rain latest hour (hover to see other rain measurements)
** Current wind speed in m/s (hover to see current wind gust speed)